Flag for India Weather past 2 weeks in Jalpaiguri, West Bengal, India

Now
90 °F

Passing clouds.


Feels Like: 100 °F
Forecast: 74 / 88 °F
Wind: 5 mph from Southeast

Location: Lucknow / Amausi

Current Time: May 26, 2015 at 3:53:12 AM

Latest Report: May 26, 2015 at 3:00 AM


Visibility: 2 mi

Pressure: 29.47 "Hg

Humidity: 63%

Dew point: 75 °F

Location of JalpaiguriLocation

Historic Weather in Jalpaiguri — Graph

°F

Jalpaiguri temperature yesterday

Maximum temperature yesterday: 113 °F (at 2:00 PM)
Minimum temperature yesterday: 84 °F (at 5:30 AM)
Average temperature yesterday: 97 °F

Past Weeks' High & Low Weather Summary

 TemperatureHumidityPressure
High115 °F (May 23, 3:00 PM)79% (May 13, 5:00 AM)29.89 "Hg (May 13, 5:00 AM)
Low77 °F (May 12, 5:30 AM)13% (May 22, 2:30 PM)29.42 "Hg (May 22, 4:30 PM)
Average94 °F42%29.60 "Hg
* Reported May 11 2:00 AM — May 26 2:00 AM, Jalpaiguri, Weather by CustomWeather, © 2015

Note: Actual official high and low records may vary slightly from our data, if they occured in-between our weather recording intervals... More about our weather records

Advertising

Jalpaiguri weather history for previous 24 hours

 ConditionsComfort  
Time TempWeatherWind HumidityBarometerVisibility
2:00 AM
Tue, May 26
90 °FPassing clouds.5 mph63%29.50 "Hg2 mi
1:00 AM90 °FPassing clouds.3 mph63%29.50 "Hg2 mi
12:00 AM91 °FHaze.No wind59%29.47 "Hg2 mi
11:00 PM
Mon, May 25
93 °FHaze.No wind59%29.47 "Hg2 mi
10:00 PM93 °FHaze.No wind59%29.50 "Hg2 mi
8:00 PM97 °FHaze.No wind50%29.47 "Hg2 mi
7:30 PM100 °FHaze.No wind50%29.47 "Hg2 mi
7:00 PM104 °FHaze.No wind35%29.45 "Hg2 mi
5:30 PM113 °FHaze.No wind19%29.45 "Hg2 mi
5:00 PM113 °FDuststorm.No wind19%29.45 "Hg2 mi
2:00 PM113 °FDuststorm.2 mph24%29.47 "Hg2 mi
12:00 PM106 °FDuststorm.3 mph32%29.53 "Hg2 mi
11:30 AM102 °FDuststorm.2 mph35%29.53 "Hg2 mi
11:00 AM102 °FDuststorm.2 mph33%29.53 "Hg2 mi
10:30 AM102 °FDuststorm.7 mph33%29.53 "Hg2 mi
10:00 AM100 °FDuststorm.6 mph35%29.53 "Hg2 mi
9:30 AM99 °FDuststorm.7 mph37%29.53 "Hg2 mi
9:00 AM99 °FDuststorm.7 mph35%29.53 "Hg2 mi
8:30 AM95 °FDuststorm.7 mph39%29.53 "Hg2 mi
8:00 AM95 °FDuststorm.6 mph36%29.53 "Hg2 mi
7:30 AM93 °FDuststorm.3 mph39%29.50 "Hg2 mi
7:00 AM91 °FHaze.No wind41%29.50 "Hg2 mi
6:30 AM88 °FHaze.No wind43%29.50 "Hg2 mi
6:00 AM88 °FHaze.No wind43%29.47 "Hg2 mi
5:30 AM84 °FHaze.No wind51%29.47 "Hg2 mi
4:00 AM86 °FPassing clouds.N/A49%29.45 "Hg2 mi
3:00 AM86 °FPassing clouds.No wind52%29.45 "Hg2 mi
Weather by CustomWeather, © 2015

See weather overviewHow to use our weather pages